When you browse on this site, cookies collect data to enhance your experience and personalize the content and advertising you see.
Visit our Privacy Policy to learn more. By continuing to use the site, you agree to this use of cookies and data.
  • In Italy
  • List of Countries
  • For 7 days
  • Water Temperature
  • Satellite Maps
  • Weather Map
  • Weather Widgets
  • user-avatar
    Login

    Hourly Weather Carmarthen

    Today, 25 May, Saturday

    Time Temperature Precipitation Wind Pressure Humidity
    00:00 +6°C° 0 mm 4 mps 762 mmHg 93%
    01:00 +5°C° 0 mm 4 mps 762 mmHg 94%
    02:00 +5°C° 0 mm 3 mps 762 mmHg 94%
    03:00 +5°C° 0 mm 3 mps 762 mmHg 94%
    04:00 +7°C° 0 mm 3 mps 761 mmHg 92%
    05:00 +8°C° 0 mm 2 mps 761 mmHg 90%
    06:00 +9°C° 0 mm 2 mps 761 mmHg 88%
    07:00 +9°C° 0 mm 2 mps 761 mmHg 88%
    08:00 +10°C° 0 mm 2 mps 761 mmHg 89%
    09:00 +12°C° 0 mm 2 mps 761 mmHg 89%
    10:00 +12°C° 0.3 mm 2 mps 761 mmHg 91%
    11:00 +11°C° 0.3 mm 3 mps 760 mmHg 94%
    12:00 +12°C° 0.3 mm 4 mps 760 mmHg 96%
    13:00 +13°C° 0.2 mm 4 mps 760 mmHg 95%
    14:00 +14°C° 0.2 mm 5 mps 759 mmHg 94%
    15:00 +15°C° 0.2 mm 5 mps 759 mmHg 93%
    16:00 +15°C° 0 mm 5 mps 759 mmHg 91%
    17:00 +16°C° 0 mm 5 mps 758 mmHg 90%
    18:00 +16°C° 0 mm 5 mps 758 mmHg 88%
    19:00 +15°C° 0 mm 5 mps 758 mmHg 89%
    20:00 +15°C° 0 mm 5 mps 758 mmHg 90%
    21:00 +14°C° 0 mm 6 mps 757 mmHg 92%
    22:00 +14°C° 0 mm 6 mps 757 mmHg 92%
    23:00 +14°C° 0 mm 6 mps 757 mmHg 93%

    Tomorrow, 26 May, Sunday

    Time Temperature Precipitation Wind Pressure Humidity
    00:00 +14°C° 0 mm 6 mps 756 mmHg 93%
    01:00 +14°C° 0 mm 6 mps 756 mmHg 94%
    02:00 +14°C° 0 mm 6 mps 755 mmHg 94%
    03:00 +14°C° 0 mm 6 mps 755 mmHg 95%
    04:00 +14°C° 0.5 mm 6 mps 754 mmHg 95%
    05:00 +14°C° 0.5 mm 6 mps 754 mmHg 95%
    06:00 +14°C° 0.5 mm 6 mps 754 mmHg 95%
    07:00 +14°C° 0.5 mm 7 mps 754 mmHg 92%
    08:00 +14°C° 0.5 mm 7 mps 754 mmHg 89%
    09:00 +14°C° 0.5 mm 7 mps 754 mmHg 86%
    10:00 +14°C° 0.1 mm 7 mps 755 mmHg 85%
    11:00 +12°C° 0.1 mm 7 mps 755 mmHg 83%
    12:00 +12°C° 0.1 mm 7 mps 755 mmHg 82%
    13:00 +12°C° 0.1 mm 7 mps 755 mmHg 81%
    14:00 +12°C° 0.1 mm 7 mps 755 mmHg 80%
    15:00 +11°C° 0.1 mm 7 mps 756 mmHg 78%
    16:00 +12°C° 0.1 mm 7 mps 755 mmHg 77%
    17:00 +12°C° 0.1 mm 7 mps 755 mmHg 76%
    18:00 +12°C° 0.1 mm 7 mps 755 mmHg 75%
    19:00 +11°C° 0 mm 7 mps 755 mmHg 77%
    20:00 +10°C° 0 mm 7 mps 754 mmHg 80%
    21:00 +8°C° 0 mm 7 mps 754 mmHg 82%
    22:00 +9°C° 0 mm 8 mps 753 mmHg 79%
    23:00 +8°C° 0 mm 9 mps 753 mmHg 76%

    Day after tomorrow, 27 May, Monday

    Time Temperature Precipitation Wind Pressure Humidity
    00:00 +8°C° 0 mm 10 mps 753 mmHg 73%
    01:00 +8°C° 0 mm 10 mps 753 mmHg 76%
    02:00 +8°C° 0 mm 10 mps 752 mmHg 78%
    03:00 +8°C° 0 mm 10 mps 752 mmHg 81%
    04:00 +8°C° 0 mm 10 mps 753 mmHg 80%
    05:00 +8°C° 0 mm 10 mps 753 mmHg 79%
    06:00 +7°C° 0 mm 10 mps 753 mmHg 78%
    07:00 +8°C° 0 mm 10 mps 754 mmHg 75%
    08:00 +9°C° 0 mm 10 mps 754 mmHg 72%
    09:00 +11°C° 0 mm 10 mps 755 mmHg 68%
    10:00 +11°C° 0.1 mm 8 mps 755 mmHg 68%
    11:00 +11°C° 0.1 mm 7 mps 756 mmHg 68%
    12:00 +13°C° 0.1 mm 6 mps 756 mmHg 67%
    13:00 +13°C° 0 mm 6 mps 756 mmHg 66%
    14:00 +13°C° 0 mm 6 mps 757 mmHg 64%
    15:00 +13°C° 0 mm 6 mps 757 mmHg 62%
    16:00 +13°C° 0 mm 6 mps 757 mmHg 64%
    17:00 +11°C° 0 mm 6 mps 757 mmHg 66%
    18:00 +11°C° 0 mm 7 mps 757 mmHg 68%
    19:00 +9°C° 0 mm 7 mps 757 mmHg 71%
    20:00 +8°C° 0 mm 6 mps 758 mmHg 75%
    21:00 +5°C° 0 mm 6 mps 758 mmHg 79%
    22:00 +5°C° 0 mm 6 mps 758 mmHg 81%
    23:00 +4°C° 0 mm 6 mps 759 mmHg 83%

    28 May, Tuesday

    Time Temperature Precipitation Wind Pressure Humidity
    00:00 +4°C° 0 mm 6 mps 759 mmHg 85%
    01:00 +4°C° 0 mm 6 mps 759 mmHg 85%
    02:00 +3°C° 0 mm 6 mps 759 mmHg 85%
    03:00 +3°C° 0 mm 6 mps 759 mmHg 85%
    04:00 +4°C° 0 mm 6 mps 760 mmHg 82%
    05:00 +4°C° 0 mm 6 mps 760 mmHg 80%
    06:00 +5°C° 0 mm 6 mps 760 mmHg 77%
    07:00 +7°C° 0 mm 6 mps 761 mmHg 72%
    08:00 +8°C° 0 mm 6 mps 761 mmHg 68%
    09:00 +9°C° 0 mm 6 mps 761 mmHg 63%
    10:00 +10°C° 0 mm 6 mps 762 mmHg 63%
    11:00 +10°C° 0 mm 6 mps 762 mmHg 62%
    12:00 +10°C° 0 mm 5 mps 762 mmHg 62%
    13:00 +10°C° 0 mm 5 mps 762 mmHg 62%
    14:00 +12°C° 0 mm 5 mps 762 mmHg 62%
    15:00 +12°C° 0 mm 5 mps 763 mmHg 61%
    16:00 +12°C° 0 mm 4 mps 763 mmHg 65%
    17:00 +12°C° 0 mm 4 mps 763 mmHg 68%
    18:00 +11°C° 0 mm 4 mps 763 mmHg 72%
    19:00 +10°C° 0 mm 4 mps 763 mmHg 76%
    20:00 +8°C° 0 mm 3 mps 763 mmHg 79%
    21:00 +7°C° 0 mm 3 mps 763 mmHg 83%
    22:00 +6°C° 0 mm 2 mps 763 mmHg 84%
    23:00 +6°C° 0 mm 2 mps 763 mmHg 85%

    29 May, Wednesday

    Time Temperature Precipitation Wind Pressure Humidity
    00:00 +6°C° 0 mm 1 mps 763 mmHg 86%
    01:00 +6°C° 0 mm 2 mps 763 mmHg 85%
    02:00 +6°C° 0 mm 2 mps 763 mmHg 83%
    03:00 +7°C° 0 mm 2 mps 762 mmHg 82%
    04:00 +7°C° 0 mm 3 mps 762 mmHg 85%
    05:00 +7°C° 0 mm 4 mps 762 mmHg 87%
    06:00 +7°C° 0 mm 5 mps 762 mmHg 89%
    07:00 +8°C° 0 mm 5 mps 762 mmHg 85%
    08:00 +11°C° 0 mm 4 mps 762 mmHg 80%
    09:00 +12°C° 0 mm 4 mps 762 mmHg 75%
    10:00 +12°C° 0.2 mm 4 mps 762 mmHg 80%
    11:00 +11°C° 0.2 mm 4 mps 761 mmHg 85%
    12:00 +11°C° 0.2 mm 4 mps 761 mmHg 90%
    13:00 +10°C° 1 mm 4 mps 761 mmHg 92%
    14:00 +10°C° 1 mm 3 mps 760 mmHg 94%
    15:00 +10°C° 1 mm 3 mps 759 mmHg 97%
    16:00 +10°C° 1.7 mm 3 mps 758 mmHg 97%
    17:00 +11°C° 1.7 mm 3 mps 758 mmHg 98%
    18:00 +12°C° 1.7 mm 3 mps 757 mmHg 98%
    19:00 +12°C° 0.9 mm 4 mps 756 mmHg 98%
    20:00 +12°C° 0.9 mm 4 mps 756 mmHg 97%
    21:00 +12°C° 0.9 mm 5 mps 755 mmHg 96%
    22:00 +13°C° 0.9 mm 5 mps 755 mmHg 96%
    23:00 +13°C° 0.9 mm 5 mps 754 mmHg 96%

    30 May, Thursday

    Time Temperature Precipitation Wind Pressure Humidity
    00:00 +13°C° 0.9 mm 5 mps 754 mmHg 96%
    01:00 +10°C° 1.3 mm 6 mps 754 mmHg 96%
    02:00 +9°C° 1.3 mm 6 mps 754 mmHg 96%
    03:00 +8°C° 1.3 mm 6 mps 754 mmHg 96%
    04:00 +8°C° 0.3 mm 7 mps 754 mmHg 96%
    05:00 +6°C° 0.3 mm 7 mps 755 mmHg 95%
    06:00 +6°C° 0.3 mm 7 mps 755 mmHg 95%
    07:00 +6°C° 0.3 mm 7 mps 756 mmHg 92%
    08:00 +8°C° 0.3 mm 7 mps 757 mmHg 90%
    09:00 +7°C° 0.3 mm 8 mps 757 mmHg 88%
    10:00 +9°C° 0 mm 8 mps 758 mmHg 77%
    11:00 +10°C° 0 mm 8 mps 759 mmHg 67%
    12:00 +10°C° 0 mm 8 mps 760 mmHg 56%
    13:00 +11°C° 0 mm 9 mps 760 mmHg 57%
    14:00 +11°C° 0 mm 9 mps 761 mmHg 58%
    15:00 +11°C° 0 mm 10 mps 761 mmHg 58%
    16:00 +9°C° 0 mm 10 mps 762 mmHg 61%
    17:00 +9°C° 0 mm 10 mps 762 mmHg 64%
    18:00 +8°C° 0 mm 10 mps 763 mmHg 66%
    19:00 +8°C° 0 mm 10 mps 763 mmHg 68%
    20:00 +7°C° 0 mm 9 mps 764 mmHg 69%
    21:00 +6°C° 0 mm 8 mps 765 mmHg 70%
    22:00 +6°C° 0 mm 8 mps 765 mmHg 72%
    23:00 +6°C° 0 mm 8 mps 766 mmHg 74%
    Show more